N5LSN Weather Reports


time (UTC)temp
C
wind
direction
speed
KPH
gust
KPH
rain 1hr
cm
rain 24hr
cm
rain mn
cm
humidity
%
barometer
mb
20260505022543 19 162 6.4 6.4 0.00 0.00 0.00 71 1009.2
20260505022040 19 163 3.2 4.8 0.00 0.00 0.00 71 1009.2
20260505021536 19 133 3.2 4.8 0.00 0.00 0.00 70 1009.2
20260505021033 20 105 0.0 6.4 0.00 0.00 0.00 70 1009.1
20260505020532 20 124 3.2 4.8 0.00 0.00 0.00 70 1009.0
20260505020030 20 148 0.0 6.4 0.00 0.00 0.00 69 1009.1
20260505015527 20 153 3.2 4.8 0.00 0.00 0.00 68 1009.1
20260505015024 20 147 3.2 6.4 0.00 0.00 0.00 68 1009.2
20260505014520 20 157 4.8 8.0 0.00 0.00 0.00 68 1009.4
20260505014018 20 172 4.8 8.0 0.00 0.00 0.00 68 1009.1
20260505013515 20 156 3.2 9.7 0.00 0.00 0.00 68 1009.1
20260505013012 20 155 3.2 8.0 0.00 0.00 0.00 67 1008.9
20260505012510 21 130 0.0 6.4 0.00 0.00 0.00 67 1008.8
20260505012007 21 150 3.2 8.0 0.00 0.00 0.00 68 1008.8
20260505011502 21 170 3.2 8.0 0.00 0.00 0.00 67 1008.8
20260505011000 21 161 4.8 8.0 0.00 0.00 0.00 66 1008.6
20260505010455 21 147 4.8 6.4 0.00 0.00 0.00 66 1008.7
20260505005951 21 145 3.2 8.0 0.00 0.00 0.00 66 1008.6
20260505005448 21 148 3.2 4.8 0.00 0.00 0.00 65 1008.6
20260505004946 21 151 3.2 8.0 0.00 0.00 0.00 64 1008.6
20260505004443 22 165 6.4 8.0 0.00 0.00 0.00 63 1008.9
20260505003940 22 162 4.8 8.0 0.00 0.00 0.00 62 1008.8
20260505003437 22 143 4.8 8.0 0.00 0.00 0.00 62 1008.9
20260505002933 22 173 4.8 6.4 0.00 0.00 0.00 61 1008.8
20260505002429 22 155 4.8 6.4 0.00 0.00 0.00 61 1008.7
20260505001928 22 165 3.2 4.8 0.00 0.00 0.00 60 1009.0
20260505001425 23 194 3.2 8.0 0.00 0.00 0.00 59 1008.9
20260505000922 23 180 3.2 9.7 0.00 0.00 0.00 58 1008.9
20260505000420 23 190 3.2 12.9 0.00 0.00 0.00 58 1008.8
20260504235916 23 174 8.0 11.3 0.00 0.00 0.00 57 1009.0
20260504235408 23 205 8.0 12.9 0.00 0.00 0.00 56 1008.8
20260504234904 23 196 8.0 14.5 0.00 0.00 0.00 55 1009.0
20260504234402 23 204 6.4 9.7 0.00 0.00 0.00 56 1009.0
20260504233858 23 197 11.3 16.1 0.00 0.00 0.00 55 1009.0
20260504233354 23 198 11.3 17.7 0.00 0.00 0.00 54 1009.1
20260504232850 23 152 6.4 14.5 0.00 0.00 0.00 54 1009.1
20260504232348 24 157 14.5 19.3 0.00 0.00 0.00 53 1009.0
20260504231844 24 205 9.7 17.7 0.00 0.00 0.00 53 1009.4
20260504231341 24 201 8.0 14.5 0.00 0.00 0.00 54 1009.3
20260504230837 25 223 6.4 8.0 0.00 0.00 0.00 54 1009.3
20260504230335 24 214 4.8 11.3 0.00 0.00 0.00 54 1009.5
20260504225834 25 152 6.4 9.7 0.00 0.00 0.00 53 1009.5
20260504225330 25 197 6.4 11.3 0.00 0.00 0.00 53 1009.9
20260504224827 25 188 6.4 27.4 0.00 0.00 0.00 52 1009.6
20260504224324 25 197 8.0 17.7 0.00 0.00 0.00 52 1009.7
20260504223821 25 210 3.2 16.1 0.00 0.00 0.00 53 1009.8
20260504223316 25 192 6.4 17.7 0.00 0.00 0.00 51 1009.6
20260504222813 25 224 6.4 17.7 0.00 0.00 0.00 52 1009.6
20260504222310 25 180 4.8 12.9 0.00 0.00 0.00 52 1009.8
20260504221809 25 185 6.4 9.7 0.00 0.00 0.00 52 1009.7
20260504221305 25 203 6.4 16.1 0.00 0.00 0.00 52 1009.9
20260504220802 25 269 4.8 22.5 0.00 0.00 0.00 51 1009.9
20260504220258 25 206 8.0 27.4 0.00 0.00 0.00 51 1009.9
20260504215756 25 198 17.7 20.9 0.00 0.00 0.00 50 1009.9
20260504215251 25 216 8.0 29.0 0.00 0.00 0.00 52 1010.1
20260504214747 25 208 4.8 16.1 0.00 0.00 0.00 50 1010.2
20260504214244 26 254 4.8 8.0 0.00 0.00 0.00 49 1010.3
20260504213742 25 224 8.0 12.9 0.00 0.00 0.00 50 1010.1
20260504213238 25 252 4.8 22.5 0.00 0.00 0.00 49 1010.1
20260504212735 26 175 6.4 20.9 0.00 0.00 0.00 50 1010.3
20260504212232 26 240 4.8 11.3 0.00 0.00 0.00 47 1010.4
20260504211729 25 175 3.2 22.5 0.00 0.00 0.00 49 1010.2
20260504211225 25 196 14.5 17.7 0.00 0.00 0.00 48 1010.3
20260504210722 25 163 19.3 29.0 0.00 0.00 0.00 49 1010.5
20260504210214 25 201 8.0 27.4 0.00 0.00 0.00 48 1010.7
20260504205710 26 195 12.9 22.5 0.00 0.00 0.00 47 1010.7
20260504205207 25 202 16.1 22.5 0.00 0.00 0.00 48 1010.8
20260504204701 26 263 9.7 17.7 0.00 0.00 0.00 47 1010.8
20260504204159 26 213 14.5 24.1 0.00 0.00 0.00 48 1011.0
20260504203657 26 227 6.4 17.7 0.00 0.00 0.00 48 1010.9
20260504203154 25 195 9.7 24.1 0.00 0.00 0.00 49 1011.1
20260504202649 25 224 4.8 24.1 0.00 0.00 0.00 50 1011.2
20260504202146 25 190 8.0 29.0 0.00 0.00 0.00 49 1011.5
20260504201643 26 195 14.5 29.0 0.00 0.00 0.00 48 1011.4
20260504201141 26 219 8.0 20.9 0.00 0.00 0.00 49 1011.4
20260504200638 25 180 6.4 22.5 0.00 0.00 0.00 48 1011.6
20260504200134 26 245 6.4 22.5 0.00 0.00 0.00 48 1011.7
20260504195630 26 277 6.4 22.5 0.00 0.00 0.00 48 1011.8
20260504195127 26 214 6.4 14.5 0.00 0.00 0.00 48 1012.0
20260504194624 25 238 11.3 20.9 0.00 0.00 0.00 48 1012.1
20260504194120 25 250 4.8 25.7 0.00 0.00 0.00 50 1011.9
20260504193616 25 241 8.0 16.1 0.00 0.00 0.00 49 1012.2
20260504193114 25 231 8.0 29.0 0.00 0.00 0.00 49 1012.1
20260504192612 25 186 8.0 20.9 0.00 0.00 0.00 50 1012.1
20260504192110 25 221 8.0 27.4 0.00 0.00 0.00 50 1012.5
20260504191608 25 225 4.8 12.9 0.00 0.00 0.00 52 1012.3
20260504191103 25 212 20.9 29.0 0.00 0.00 0.00 49 1012.4
20260504190600 25 207 6.4 20.9 0.00 0.00 0.00 50 1012.5
20260504190056 25 205 12.9 25.7 0.00 0.00 0.00 49 1012.6
20260504185553 25 189 11.3 30.6 0.00 0.00 0.00 48 1012.5
20260504185044 24 207 12.9 17.7 0.00 0.00 0.00 50 1012.5
20260504184540 25 172 8.0 25.7 0.00 0.00 0.00 51 1012.6
20260504184035 25 199 14.5 35.4 0.00 0.00 0.00 48 1012.9
20260504183533 25 194 8.0 19.3 0.00 0.00 0.00 50 1012.9
20260504183031 25 302 8.0 19.3 0.00 0.00 0.00 52 1012.8
20260504182527 25 192 24.1 24.1 0.00 0.00 0.00 51 1012.9
20260504182025 25 208 14.5 16.1 0.00 0.00 0.00 52 1012.9
20260504181522 24 213 8.0 16.1 0.00 0.00 0.00 48 1013.1
20260504181020 25 246 9.7 22.5 0.00 0.00 0.00 48 1013.1
20260504180519 24 197 11.3 25.7 0.00 0.00 0.00 50 1013.1
20260504180017 25 198 6.4 17.7 0.00 0.00 0.00 52 1013.3
20260504175514 24 225 3.2 20.9 0.00 0.00 0.00 55 1013.4
20260504175011 24 199 14.5 29.0 0.00 0.00 0.00 53 1013.3
20260504174509 24 247 3.2 17.7 0.00 0.00 0.00 50 1013.5
20260504174005 24 261 4.8 19.3 0.00 0.00 0.00 50 1013.7
20260504173502 24 241 8.0 19.3 0.00 0.00 0.00 53 1013.6
20260504173000 24 202 11.3 20.9 0.00 0.00 0.00 54 1013.7
20260504172455 24 227 8.0 14.5 0.00 0.00 0.00 50 1013.7
20260504171952 23 198 17.7 25.7 0.00 0.00 0.00 51 1013.8
20260504171449 23 250 8.0 20.9 0.00 0.00 0.00 53 1013.8
20260504170946 23 185 16.1 19.3 0.00 0.00 0.00 51 1014.1
20260504170442 24 227 4.8 14.5 0.00 0.00 0.00 51 1013.8
20260504160402 22 233 4.8 14.5 0.00 0.00 0.00 58 1014.9
20260504150826 21 216 3.2 11.3 0.00 0.00 0.00 64 1014.9
20260504150322 21 334 4.8 14.5 0.00 0.00 0.00 66 1014.7
20260504141253 18 228 4.8 8.0 0.00 0.00 0.00 72 1014.9
20260504140749 18 180 3.2 24.1 0.00 0.00 0.00 73 1015.1
20260504140245 18 258 4.8 14.5 0.00 0.00 0.00 74 1015.2
20260504130714 15 196 4.8 11.3 0.00 0.00 0.00 86 1014.9
20260504130209 15 174 4.8 11.3 0.00 0.00 0.00 87 1015.1
20260504120133 12 39 0.0 3.2 0.00 0.00 0.00 93 1014.5
20260504110601 11 126 0.0 6.4 0.00 0.00 0.00 95 1014.0
20260504100517 11 66 0.0 3.2 0.00 0.00 0.00 96 1014.5
20260504081910 12 76 0.0 3.2 0.00 0.00 0.00 90 1014.8
20260504081407 13 44 0.0 0.0 0.00 0.00 0.00 90 1014.5
20260504080903 13 89 0.0 1.6 0.00 0.00 0.00 89 1014.6
20260504080400 13 76 0.0 1.6 0.00 0.00 0.00 89 1014.9
20260504070327 13 34 0.0 1.6 0.00 0.00 0.00 86 1015.1
20260504060247 15 85 1.6 3.2 0.00 0.00 0.00 82 1015.6
20260504050715 16 113 0.0 1.6 0.00 0.00 0.00 79 1015.4
20260504050212 16 37 0.0 0.0 0.00 0.00 0.00 79 1015.6
20260504045709 16 37 0.0 1.6 0.00 0.00 0.00 79 1015.6
20260504045204 16 129 0.0 1.6 0.00 0.00 0.00 78 1015.6
20260504044703 16 50 0.0 1.6 0.00 0.00 0.00 78 1015.4
20260504044159 16 294 0.0 3.2 0.00 0.00 0.00 78 1015.6
20260504043656 16 180 0.0 6.4 0.00 0.00 0.00 76 1015.4
20260504043153 16 184 1.6 3.2 0.00 0.00 0.00 78 1015.5
20260504042650 15 55 0.0 1.6 0.00 0.00 0.00 80 1015.4
20260504042147 15 37 0.0 1.6 0.00 0.00 0.00 80 1015.6
20260504041643 15 53 0.0 1.6 0.00 0.00 0.00 80 1015.6
20260504041139 15 114 0.0 3.2 0.00 0.00 0.00 81 1015.7
20260504040636 15 49 0.0 3.2 0.00 0.00 0.00 82 1015.7
20260504040133 15 37 0.0 1.6 0.00 0.00 0.00 82 1015.8
20260504035630 15 48 0.0 1.6 0.00 0.00 0.00 81 1016.0
20260504035126 15 50 0.0 3.2 0.00 0.00 0.00 81 1015.8
20260504034624 16 76 0.0 3.2 0.00 0.00 0.00 81 1015.9
20260504034121 16 66 0.0 1.6 0.00 0.00 0.00 80 1016.0
20260504033619 16 112 3.2 3.2 0.00 0.00 0.00 80 1015.9
20260504033116 16 53 0.0 0.0 0.00 0.00 0.00 79 1016.4
20260504032613 16 103 0.0 3.2 0.00 0.00 0.00 79 1016.1
20260504032110 16 55 0.0 1.6 0.00 0.00 0.00 78 1016.1
20260504031607 16 135 0.0 1.6 0.00 0.00 0.00 77 1015.8
20260504031103 16 59 1.6 3.2 0.00 0.00 0.00 77 1015.9
20260504030600 17 50 1.6 3.2 0.00 0.00 0.00 77 1016.0
20260504030056 17 50 0.0 1.6 0.00 0.00 0.00 76 1015.9
20260504025553 17 69 0.0 3.2 0.00 0.00 0.00 74 1015.8
20260504025050 18 120 1.6 4.8 0.00 0.00 0.00 73 1016.0
20260504024547 18 127 3.2 3.2 0.00 0.00 0.00 73 1015.8
20260504024044 18 141 4.8 4.8 0.00 0.00 0.00 72 1015.8
20260504023540 18 156 3.2 4.8 0.00 0.00 0.00 71 1015.7
20260504023031 18 135 3.2 4.8 0.00 0.00 0.00 71 1015.5